Airfield :
LOGIN :

Register | Disclaimer

   EN    FR    IT 

 










Legend :    VFR   Marginal VFR   IFR   Intensive IFR   Very Intensive IFR
Visi :
Ceiling :
>= 8 km
>= 3000ft
5 to 8 km
1000 to 3000 ft
1500m to 5 km
500 to 1000 ft
800 to 1500m
200 to 500 ft
< 800m
< 200 ft
Symbols :   Thunderstorms  Fog  Heavy snow  Heavy precipitations  Wind > 20 kt
SIGMETs :     Misc.  Thunderstorms  Icing  Turbulence  Mountain Waves  Volcanic Ashes






- Airport Elevation : 13 ft
- IATA code : CAG


LIEE - Cagliari Elmas

CURRENT METAR :
  • 110320Z 15012KT 9999 BKN015 15/14 Q1016

EXPIRED METARs :
  • 110250Z 14011KT 9999 SCT015 15/14 Q1016
  • 110220Z 16012KT 9999 SCT016 15/14 Q1016
  • 110150Z 15016KT 9999 SCT020 15/14 Q1016
  • 110120Z 16012KT 9999 -RA SCT020 15/14 Q1016
  • 110050Z 13018KT 9999 -RA SCT020 15/14 Q1016

TAF TAF LIEE
Valid from the 11 at 00:00 until the 12 at 00:00 UTC


102300Z 1100/1124 15015KT 9999 SCT030
TEMPO 1100/1108 RA



MET'MAP, your aeronautical weather chart ! - Copyright ORBIFLY December 2007 - Disclaimer

ORBIFLY MET'MAP TEAM :

Programming & Development : Alexandra Zaïnal
Concept & original design : Baudouin d'Aumeries
Assistance for programming : Marc-Olivier Méhu
Technical & hardware support : Manuel Goepfert

Contact : metmap@orbifly.com




SOURCES & CREDITS :

   NOAA